Location: Bothwell
(42.3833°S, 147.0000°E)
Time: 03:19:17
(UTC+11:00)

SEEDS - Pass Details

Date: 28 September 2022
Orbit: 577 x 595 km, 97.6° (Epoch: 29 November)

Event Time Altitude Azimuth Distance (km) Brightness Sun altitude
Exits shadow 02:53:46 29° 134° (SE) 1,096 ? -31.4°
Drops below altitude 10° 02:56:38 10° 173° (S) 1,929 ? -31.0°
Sets 02:58:58 0° 182° (S) 2,839 ? -30.6°
